This is the latest recevied weather packets stored in our database for station/object KW4UJ. If no packets are shown the sender has not sent any weather packets the latest 10 day(s).
| Time | Temp. | Humidity | Pressure | Rain* | Wind** | Luminosity | Snow |
|---|---|---|---|---|---|---|---|
| 1788459997 | 30.56° C | 67% | 1015.5 hPa | 0 mm | - | 274 W/m² | - |
| 1788459693 | 30.56° C | 66% | 1015.3 hPa | 0 mm | - | 254 W/m² | - |
| 1788459391 | 31.11° C | 64% | 1015.5 hPa | 0 mm | - | 216 W/m² | - |
| 1788459086 | 31.67° C | 65% | 1015.8 hPa | 0 mm | - | 220 W/m² | - |
| 1788458782 | 31.11° C | 68% | 1015.7 hPa | 0 mm | - | 721 W/m² | - |
| 1788458476 | 30.56° C | 70% | 1015.8 hPa | 0 mm | - | 281 W/m² | - |
| 1788458175 | 30.56° C | 68% | 1016 hPa | 0 mm | - | 213 W/m² | - |
| 1788457875 | 30.56° C | 69% | 1015.6 hPa | 0 mm | - | 336 W/m² | - |
| 1788457569 | 30.56° C | 67% | 1015.8 hPa | 0 mm | - | 446 W/m² | - |
| 1788457264 | 30.56° C | 68% | 1015.7 hPa | 0 mm | - | 394 W/m² | - |
| 1788456959 | 31.11° C | 66% | 1016 hPa | 0 mm | - | 330 W/m² | - |
| 1788456656 | 30.56° C | 69% | 1016.4 hPa | 0 mm | - | 442 W/m² | - |
| 1788456356 | 30.56° C | 69% | 1016.5 hPa | 0 mm | - | 445 W/m² | - |
| 1788456051 | 30° C | 71% | 1016.5 hPa | 0 mm | - | 356 W/m² | - |
| 1788455751 | 29.44° C | 71% | 1016.7 hPa | 0 mm | - | 578 W/m² | - |
| 1788455447 | 30° C | 71% | 1016.9 hPa | 0 mm | - | 295 W/m² | - |
| 1788455145 | 30° C | 71% | 1016.9 hPa | 0 mm | - | 568 W/m² | - |
| 1788454841 | 30° C | 72% | 1016.8 hPa | 0 mm | - | 591 W/m² | - |
| 1788454538 | 29.44° C | 73% | 1016.9 hPa | 0 mm | - | 651 W/m² | - |
| 1788454235 | 28.89° C | 74% | 1017 hPa | 0 mm | - | 557 W/m² | - |
| 1788453934 | 28.33° C | 76% | 1017.5 hPa | 0 mm | - | 524 W/m² | - |
| 1788453630 | 28.33° C | 77% | 1017.5 hPa | 0 mm | - | 501 W/m² | - |
| 1788453325 | 27.78° C | 80% | 1017.5 hPa | 0 mm | - | 599 W/m² | - |
| 1788453021 | 27.78° C | 81% | 1017.5 hPa | 0 mm | - | 225 W/m² | - |
| 1788452717 | 27.78° C | 81% | 1017.6 hPa | 0 mm | - | 246 W/m² | - |
* Rain latest hour (hover to see other rain measurements)
** Current wind speed in m/s (hover to see current wind gust speed)